#ZEITBEREICH: 23.04.2023 bis 23.04.2024
Datum;Zeit;JHNK F AM1H [%];JHNK NO AM1H [�g/m�];JHNK NO2 AM1H [�g/m�];JHNK PM10F GM24H [�g/m�];JHNK T AM1H [�C];JHNK WG SM1H [m/s];JHNK WR VM1H [�]
23.04.2023;01:00;88,7;<7;11;16;10,1;1,4;216
23.04.2023;02:00;89,1;<7;11;16;9,9;1,1;181
23.04.2023;03:00;89,8;<7;11;17;9,7;1,7;153
23.04.2023;04:00;90,7;<7;<10;17;9,6;2,2;143
23.04.2023;05:00;91,1;<7;<10;16;9,5;2,3;141
23.04.2023;06:00;89,5;<7;<10;16;9,8;1,6;152
23.04.2023;07:00;85,0;<7;<10;16;11,1;1,3;179
23.04.2023;08:00;83,6;<7;<10;16;12,1;1,3;172
23.04.2023;09:00;79,2;<7;<10;16;13,9;2,0;181
23.04.2023;10:00;72,6;<7;<10;16;15,1;2,9;194
23.04.2023;11:00;62,7;<7;<10;16;16,5;3,1;198
23.04.2023;12:00;59,8;<7;<10;16;16,7;3,6;212
23.04.2023;13:00;57,3;<7;<10;16;16,7;3,5;205
23.04.2023;14:00;52,7;<7;<10;15;17,5;3,2;187
23.04.2023;15:00;53,4;<7;<10;15;17,4;4,0;150
23.04.2023;16:00;59,8;<7;<10;15;16,4;4,3;146
23.04.2023;17:00;82,3;<7;<10;14;13,0;2,0;229
23.04.2023;18:00;85,8;<7;<10;14;12,6;2,0;131
23.04.2023;19:00;82,6;<7;<10;14;12,6;4,1;139
23.04.2023;20:00;82,8;<7;<10;14;12,7;5,5;144
23.04.2023;21:00;74,8;<7;<10;14;12,8;5,5;210
23.04.2023;22:00;73,6;<7;<10;14;12,0;6,2;219
23.04.2023;23:00;74,0;<7;<10;13;11,4;6,3;222
23.04.2023;24:00;75,5;<7;<10;13;11,3;3,6;213
24.04.2023;01:00;77,1;<7;<10;13;10,8;3,9;210
24.04.2023;02:00;77,3;<7;<10;12;9,9;5,6;225
24.04.2023;03:00;79,9;<7;<10;11;9,2;5,9;226
24.04.2023;04:00;80,5;<7;<10;11;9,3;5,2;223
24.04.2023;05:00;80,6;<7;<10;11;9,3;4,9;219
24.04.2023;06:00;81,5;<7;<10;11;9,0;5,0;222
24.04.2023;07:00;83,4;<7;<10;10;8,6;5,7;221
24.04.2023;08:00;87,5;<7;<10;<10;8,2;7,0;228
24.04.2023;09:00;89,4;<7;<10;<10;7,2;7,8;238
24.04.2023;10:00;91,7;<7;<10;<10;7,2;7,7;241
24.04.2023;11:00;92,4;<7;<10;<10;7,6;5,7;251
24.04.2023;12:00;90,7;<7;<10;<10;8,1;5,4;258
24.04.2023;13:00;82,1;<7;<10;10;9,5;5,9;260
24.04.2023;14:00;72,3;<7;<10;10;10,3;5,8;256
24.04.2023;15:00;68,1;<7;<10;10;10,6;6,0;262
24.04.2023;16:00;66,0;<7;<10;10;10,9;5,6;262
24.04.2023;17:00;61,7;<7;<10;11;11,5;5,2;265
24.04.2023;18:00;61,9;<7;<10;10;11,4;4,3;275
24.04.2023;19:00;66,0;<7;<10;10;10,6;3,7;281
24.04.2023;20:00;69,2;<7;<10;10;9,8;2,6;276
24.04.2023;21:00;73,9;<7;<10;10;8,8;2,1;267
24.04.2023;22:00;76,6;<7;<10;11;8,0;2,6;262
24.04.2023;23:00;80,6;<7;<10;11;7,1;2,4;265
24.04.2023;24:00;82,3;<7;<10;11;6,5;2,4;272
25.04.2023;01:00;83,4;<7;<10;12;6,1;2,2;268
25.04.2023;02:00;84,1;<7;<10;12;5,8;2,3;273
25.04.2023;03:00;84,7;<7;<10;13;6,0;2,6;284
25.04.2023;04:00;85,9;<7;<10;13;5,8;1,9;272
25.04.2023;05:00;87,4;<7;<10;13;5,6;2,0;271
25.04.2023;06:00;88,1;<7;<10;13;5,5;2,0;277
25.04.2023;07:00;85,2;<7;12;13;5,9;1,9;298
25.04.2023;08:00;81,0;<7;10;14;6,5;2,3;304
25.04.2023;09:00;76,0;<7;<10;15;7,1;2,7;314
25.04.2023;10:00;66,0;<7;<10;15;7,9;2,6;310
25.04.2023;11:00;60,3;<7;<10;15;8,5;2,9;308
25.04.2023;12:00;59,9;<7;<10;15;8,9;2,6;321
25.04.2023;13:00;55,1;<7;<10;15;9,6;2,8;306
25.04.2023;14:00;51,8;<7;<10;14;9,7;3,3;313
25.04.2023;15:00;53,7;<7;<10;14;9,7;4,0;308
25.04.2023;16:00;52,2;<7;<10;14;9,9;3,2;302
25.04.2023;17:00;51,1;<7;<10;14;10,1;3,5;314
25.04.2023;18:00;48,7;<7;<10;14;10,5;3,8;301
25.04.2023;19:00;48,2;<7;<10;14;9,9;3,5;312
25.04.2023;20:00;55,3;<7;<10;15;8,8;2,4;321
25.04.2023;21:00;62,8;<7;<10;15;7,6;2,1;324
25.04.2023;22:00;67,6;<7;<10;15;6,6;1,5;326
25.04.2023;23:00;70,7;<7;11;15;5,7;0,9;300
25.04.2023;24:00;74,5;<7;16;15;4,9;1,1;269
26.04.2023;01:00;77,2;<7;12;15;4,3;1,3;289
26.04.2023;02:00;79,5;<7;12;15;3,7;1,1;289
26.04.2023;03:00;81,4;<7;12;15;3,1;0,8;278
26.04.2023;04:00;82,2;<7;12;15;2,8;0,7;240
26.04.2023;05:00;84,0;<7;22;15;2,4;0,8;242
26.04.2023;06:00;85,0;7;39;15;2,4;0,9;238
26.04.2023;07:00;84,8;<7;30;15;3,0;1,2;228
26.04.2023;08:00;82,3;<7;22;16;4,4;1,1;224
26.04.2023;09:00;79,1;<7;19;16;5,8;1,8;225
26.04.2023;10:00;72,5;<7;<10;16;6,8;1,7;227
26.04.2023;11:00;63,8;<7;<10;16;7,4;1,6;234
26.04.2023;12:00;59,3;<7;<10;16;8,3;2,0;219
26.04.2023;13:00;53,7;<7;<10;17;9,0;1,7;214
26.04.2023;14:00;51,4;<7;<10;17;9,4;1,5;275
26.04.2023;15:00;48,4;<7;<10;17;10,1;1,7;303
26.04.2023;16:00;49,8;<7;<10;18;10,2;1,6;26
26.04.2023;17:00;45,8;<7;<10;18;10,6;1,7;310
26.04.2023;18:00;47,9;<7;<10;18;10,7;2,1;38
26.04.2023;19:00;49,6;<7;<10;19;10,3;1,8;17
26.04.2023;20:00;56,6;<7;<10;19;9,0;1,6;8
26.04.2023;21:00;60,3;<7;12;19;8,5;1,1;12
26.04.2023;22:00;62,8;<7;<10;19;8,1;1,0;18
26.04.2023;23:00;64,3;<7;11;19;7,8;1,1;16
26.04.2023;24:00;67,1;<7;12;19;7,4;1,2;9
27.04.2023;01:00;70,3;<7;13;19;6,6;1,3;14
27.04.2023;02:00;72,7;<7;15;20;6,1;1,3;11
27.04.2023;03:00;75,7;<7;16;20;5,4;1,8;10
27.04.2023;04:00;78,2;<7;18;20;4,7;1,6;15
27.04.2023;05:00;81,5;<7;20;20;4,0;1,6;28
27.04.2023;06:00;82,5;<7;27;20;3,7;1,4;33
27.04.2023;07:00;80,4;<7;29;20;4,7;1,2;42
27.04.2023;08:00;78,4;7;25;19;5,9;2,0;54
27.04.2023;09:00;68,9;<7;17;19;8,1;2,2;63
27.04.2023;10:00;61,7;<7;15;19;9,3;2,2;42
27.04.2023;11:00;53,3;<7;11;19;10,4;2,2;67
27.04.2023;12:00;49,1;<7;<10;19;11,3;2,1;77
27.04.2023;13:00;45,5;<7;<10;19;12,0;1,7;66
27.04.2023;14:00;43,6;<7;<10;19;12,7;1,6;58
27.04.2023;15:00;41,7;<7;<10;19;13,4;1,5;51
27.04.2023;16:00;41,7;<7;12;19;13,6;2,1;52
27.04.2023;17:00;41,9;<7;16;19;13,9;2,0;46
27.04.2023;18:00;44,9;<7;13;19;13,9;1,8;43
27.04.2023;19:00;47,6;<7;14;20;13,4;1,5;30
27.04.2023;20:00;53,3;<7;18;20;12,7;1,5;29
27.04.2023;21:00;55,4;<7;15;20;11,8;1,7;33
27.04.2023;22:00;58,6;<7;14;20;11,1;1,3;49
27.04.2023;23:00;61,4;<7;13;20;10,7;1,4;49
27.04.2023;24:00;63,5;<7;14;20;10,5;1,3;58
28.04.2023;01:00;70,0;<7;15;20;9,9;1,3;45
28.04.2023;02:00;75,1;<7;16;20;9,6;1,2;30
28.04.2023;03:00;82,3;<7;16;19;9,2;1,3;43
28.04.2023;04:00;85,5;<7;17;20;9,6;1,9;85
28.04.2023;05:00;86,2;<7;20;20;10,1;3,2;93
28.04.2023;06:00;88,0;<7;36;20;10,2;3,1;103
28.04.2023;07:00;89,0;<7;32;20;10,1;2,0;116
28.04.2023;08:00;86,4;<7;28;20;10,6;2,2;141
28.04.2023;09:00;88,5;<7;25;21;11,1;2,2;146
28.04.2023;10:00;88,1;<7;18;21;12,6;2,3;163
28.04.2023;11:00;91,6;<7;18;20;13,0;1,8;186
28.04.2023;12:00;92,4;<7;13;20;14,0;2,7;244
28.04.2023;13:00;85,9;<7;<10;20;15,9;3,0;256
28.04.2023;14:00;77,3;<7;<10;19;17,8;3,4;253
28.04.2023;15:00;68,4;<7;<10;19;19,1;5,0;255
28.04.2023;16:00;67,0;<7;<10;18;19,1;5,7;270
28.04.2023;17:00;72,5;<7;<10;18;16,7;6,2;275
28.04.2023;18:00;75,3;<7;<10;17;15,5;4,2;258
28.04.2023;19:00;78,7;<7;<10;17;14,9;3,3;255
28.04.2023;20:00;79,7;<7;<10;16;14,7;2,3;257
28.04.2023;21:00;80,9;<7;<10;16;14,5;2,9;253
28.04.2023;22:00;85,2;<7;<10;15;13,8;4,1;254
28.04.2023;23:00;90,6;<7;<10;15;12,7;3,8;250
28.04.2023;24:00;89,8;<7;<10;14;12,4;4,1;267
29.04.2023;01:00;86,1;<7;<10;14;11,9;3,6;271
29.04.2023;02:00;86,1;<7;<10;14;11,2;3,9;279
29.04.2023;03:00;88,1;<7;<10;14;10,6;3,3;282
29.04.2023;04:00;89,3;<7;<10;14;10,1;3,4;276
29.04.2023;05:00;91,9;<7;<10;15;9,3;2,6;298
29.04.2023;06:00;92,3;<7;<10;14;9,0;2,5;290
29.04.2023;07:00;92,8;<7;<10;14;9,0;2,2;286
29.04.2023;08:00;92,1;<7;<10;14;9,3;2,1;299
29.04.2023;09:00;89,2;<7;<10;14;9,6;2,0;306
29.04.2023;10:00;87,3;<7;<10;13;9,8;2,2;300
29.04.2023;11:00;82,8;<7;<10;13;10,7;2,1;313
29.04.2023;12:00;84,3;<7;<10;14;10,6;2,1;319
29.04.2023;13:00;82,7;<7;<10;14;11,1;1,9;344
29.04.2023;14:00;78,5;<7;<10;15;12,1;1,7;345
29.04.2023;15:00;71,8;<7;<10;16;13,4;1,5;25
29.04.2023;16:00;71,9;<7;<10;16;13,3;1,3;32
29.04.2023;17:00;70,3;<7;<10;17;13,6;1,6;7
29.04.2023;18:00;68,1;<7;<10;17;13,9;1,0;7
29.04.2023;19:00;66,1;<7;<10;18;14,3;1,0;359
29.04.2023;20:00;68,6;<7;13;18;13,9;0,9;353
29.04.2023;21:00;69,8;<7;16;19;13,3;0,3;
29.04.2023;22:00;74,2;<7;17;19;12,5;0,4;306
29.04.2023;23:00;76,0;<7;27;20;12,0;1,0;333
29.04.2023;24:00;78,5;<7;21;20;11,2;1,6;10
30.04.2023;01:00;79,6;<7;19;21;10,3;1,9;12
30.04.2023;02:00;79,8;<7;16;21;9,4;2,2;17
30.04.2023;03:00;83,3;;;21;8,3;1,7;26
30.04.2023;04:00;86,4;<7;10;20;7,5;1,7;14
30.04.2023;05:00;88,5;<7;<10;20;7,0;1,7;26
30.04.2023;06:00;89,6;<7;<10;20;6,8;1,4;29
30.04.2023;07:00;88,3;<7;<10;20;7,6;1,7;22
30.04.2023;08:00;86,5;<7;<10;20;8,8;1,9;37
30.04.2023;09:00;80,4;<7;12;20;10,8;1,6;35
30.04.2023;10:00;73,3;<7;12;20;12,8;1,7;48
30.04.2023;11:00;63,5;<7;<10;20;14,3;2,0;47
30.04.2023;12:00;58,6;<7;<10;19;15,4;2,0;51
30.04.2023;13:00;56,7;<7;<10;19;16,1;2,1;33
30.04.2023;14:00;54,0;<7;<10;18;16,9;2,2;16
30.04.2023;15:00;50,3;<7;<10;17;17,5;2,4;41
30.04.2023;16:00;49,1;<7;<10;17;18,1;2,7;29
30.04.2023;17:00;48,4;<7;<10;16;18,1;2,7;24
30.04.2023;18:00;49,3;<7;<10;15;17,7;2,9;23
30.04.2023;19:00;51,8;<7;<10;15;16,9;2,8;22
30.04.2023;20:00;56,1;<7;<10;14;15,5;2,4;23
30.04.2023;21:00;61,1;<7;<10;14;14,2;2,3;22
30.04.2023;22:00;62,9;<7;10;13;13,6;2,3;22
30.04.2023;23:00;67,1;<7;11;13;12,5;1,8;27
30.04.2023;24:00;70,4;<7;14;13;11,6;1,2;44
01.05.2023;01:00;69,2;<7;15;12;11,7;1,6;74
01.05.2023;02:00;65,5;<7;10;12;12,4;2,0;98
01.05.2023;03:00;63,8;<7;<10;13;12,6;2,3;105
01.05.2023;04:00;66,6;<7;13;13;12,0;1,9;110
01.05.2023;05:00;67,6;<7;15;14;11,8;1,9;103
01.05.2023;06:00;67,8;<7;15;14;11,7;1,2;109
01.05.2023;07:00;69,9;<7;21;14;12,1;1,5;147
01.05.2023;08:00;71,4;<7;16;14;12,3;1,6;133
01.05.2023;09:00;68,1;<7;14;14;13,5;1,5;138
01.05.2023;10:00;62,2;<7;10;14;15,3;1,2;180
01.05.2023;11:00;56,2;<7;<10;15;16,7;1,4;217
01.05.2023;12:00;56,2;<7;<10;15;17,6;1,5;219
01.05.2023;13:00;53,7;<7;<10;16;18,5;1,8;235
01.05.2023;14:00;51,6;<7;<10;16;18,6;2,7;261
01.05.2023;15:00;49,2;<7;<10;16;18,5;2,6;247
01.05.2023;16:00;60,5;<7;<10;16;15,6;3,2;229
01.05.2023;17:00;73,4;<7;12;17;14,4;2,5;207
01.05.2023;18:00;84,4;<7;16;17;12,5;2,0;210
01.05.2023;19:00;83,6;<7;15;17;13,1;2,1;212
01.05.2023;20:00;81,5;<7;15;18;12,9;2,7;230
01.05.2023;21:00;84,6;<7;21;19;12,2;2,1;244
01.05.2023;22:00;86,7;<7;23;19;12,1;2,0;256
01.05.2023;23:00;86,1;<7;11;19;12,0;2,2;279
01.05.2023;24:00;84,4;<7;<10;19;11,4;2,2;289
02.05.2023;01:00;86,8;<7;<10;20;10,6;2,1;280
02.05.2023;02:00;88,7;<7;<10;20;10,0;2,3;287
02.05.2023;03:00;90,5;<7;<10;20;9,9;2,3;283
02.05.2023;04:00;90,6;<7;<10;20;10,1;1,6;254
02.05.2023;05:00;90,7;<7;<10;20;10,2;1,8;267
02.05.2023;06:00;89,1;<7;<10;20;10,2;2,2;280
02.05.2023;07:00;90,3;<7;<10;19;10,0;2,0;282
02.05.2023;08:00;89,8;<7;<10;19;10,2;2,1;310
02.05.2023;09:00;81,6;<7;<10;19;10,6;2,4;321
02.05.2023;10:00;77,5;<7;<10;19;10,7;2,7;338
02.05.2023;11:00;76,0;<7;<10;18;10,2;2,8;4
02.05.2023;12:00;71,6;<7;<10;18;10,5;2,2;353
02.05.2023;13:00;63,0;<7;<10;18;11,7;2,8;4
02.05.2023;14:00;59,0;<7;<10;18;12,0;2,7;335
02.05.2023;15:00;54,6;<7;<10;18;12,3;2,7;334
02.05.2023;16:00;52,4;<7;<10;18;12,9;2,4;342
02.05.2023;17:00;50,6;<7;<10;18;13,0;2,5;19
02.05.2023;18:00;49,1;<7;<10;18;13,4;2,0;358
02.05.2023;19:00;52,8;<7;<10;18;12,9;1,8;29
02.05.2023;20:00;56,5;<7;<10;18;11,6;1,9;23
02.05.2023;21:00;61,7;<7;<10;18;10,0;1,8;12
02.05.2023;22:00;65,6;<7;<10;18;9,0;1,8;6
02.05.2023;23:00;68,0;<7;12;18;8,4;1,8;2
02.05.2023;24:00;71,0;<7;14;18;7,6;1,9;22
03.05.2023;01:00;74,0;<7;13;18;6,7;1,5;32
03.05.2023;02:00;76,8;<7;12;17;5,9;0,9;27
03.05.2023;03:00;78,1;<7;16;17;5,6;1,2;20
03.05.2023;04:00;80,3;<7;17;16;5,1;1,6;19
03.05.2023;05:00;82,7;<7;19;16;4,5;1,5;37
03.05.2023;06:00;84,0;<7;26;16;4,0;1,0;26
03.05.2023;07:00;80,3;<7;27;16;5,5;1,3;35
03.05.2023;08:00;76,5;8;23;16;7,0;1,9;54
03.05.2023;09:00;66,3;7;21;17;9,1;2,1;69
03.05.2023;10:00;59,2;<7;16;17;10,4;2,8;101
03.05.2023;11:00;55,0;<7;12;17;11,5;2,5;87
03.05.2023;12:00;50,9;<7;<10;18;12,7;2,3;75
03.05.2023;13:00;48,3;<7;<10;18;13,8;2,4;46
03.05.2023;14:00;45,6;<7;<10;18;14,8;2,2;51
03.05.2023;15:00;44,4;<7;<10;19;15,5;2,4;46
03.05.2023;16:00;43,7;<7;<10;19;16,2;2,2;32
03.05.2023;17:00;43,4;<7;<10;19;16,6;2,3;32
03.05.2023;18:00;44,1;<7;<10;19;16,5;2,7;21
03.05.2023;19:00;46,5;<7;<10;19;16,0;2,6;24
03.05.2023;20:00;52,2;<7;11;19;14,5;2,1;18
03.05.2023;21:00;57,9;<7;12;19;13,0;2,2;28
03.05.2023;22:00;60,8;<7;13;18;12,2;2,3;28
03.05.2023;23:00;63,6;<7;15;18;11,2;2,0;24
03.05.2023;24:00;64,7;<7;14;18;10,6;2,1;25
04.05.2023;01:00;67,9;<7;16;18;9,7;1,5;24
04.05.2023;02:00;70,8;<7;20;18;9,0;1,7;32
04.05.2023;03:00;74,4;<7;22;18;8,2;1,5;48
04.05.2023;04:00;74,5;<7;22;19;8,1;1,8;58
04.05.2023;05:00;73,2;<7;25;19;8,3;1,9;68
04.05.2023;06:00;73,4;<7;31;19;8,1;1,6;65
04.05.2023;07:00;69,0;<7;28;19;9,8;2,2;90
04.05.2023;08:00;62,5;<7;21;19;11,5;3,9;105
04.05.2023;09:00;60,0;<7;23;20;12,9;3,7;106
04.05.2023;10:00;55,8;9;27;20;14,8;3,4;106
04.05.2023;11:00;54,0;7;23;21;16,7;3,8;107
04.05.2023;12:00;48,7;<7;19;21;18,6;4,6;107
04.05.2023;13:00;40,8;<7;14;22;20,1;5,8;109
04.05.2023;14:00;37,1;<7;15;23;21,1;5,1;112
04.05.2023;15:00;34,7;<7;15;23;21,9;4,8;107
04.05.2023;16:00;33,9;<7;15;23;22,6;4,6;102
04.05.2023;17:00;30,6;<7;15;23;23,2;3,6;114
04.05.2023;18:00;28,8;<7;18;23;23,1;4,8;106
04.05.2023;19:00;32,5;<7;10;24;23,1;3,7;111
04.05.2023;20:00;38,7;<7;12;24;21,8;2,6;115
04.05.2023;21:00;45,3;<7;12;25;20,0;2,8;123
04.05.2023;22:00;47,3;<7;12;26;19,1;2,4;121
04.05.2023;23:00;50,3;<7;11;26;18,2;2,4;122
04.05.2023;24:00;54,3;<7;15;26;17,8;1,7;156
05.05.2023;01:00;58,2;<7;18;27;17,8;1,5;181
05.05.2023;02:00;63,8;<7;17;28;17,5;1,8;220
05.05.2023;03:00;71,4;<7;20;28;16,5;1,4;228
05.05.2023;04:00;75,0;<7;14;28;16,5;2,2;249
05.05.2023;05:00;79,3;<7;23;28;15,3;2,1;233
05.05.2023;06:00;82,4;<7;23;29;14,5;2,1;233
05.05.2023;07:00;83,4;<7;24;30;14,7;1,6;227
05.05.2023;08:00;81,1;<7;19;31;15,9;1,5;215
05.05.2023;09:00;75,3;<7;13;33;17,1;3,0;241
05.05.2023;10:00;68,9;<7;<10;32;18,1;2,6;257
05.05.2023;11:00;63,8;<7;<10;32;19,3;1,8;265
05.05.2023;12:00;60,9;<7;<10;31;19,9;2,3;260
05.05.2023;13:00;66,8;<7;<10;31;18,5;3,4;250
05.05.2023;14:00;65,0;<7;<10;31;18,3;4,0;235
05.05.2023;15:00;62,6;<7;<10;30;18,8;3,3;244
05.05.2023;16:00;69,9;<7;<10;30;17,3;4,4;263
05.05.2023;17:00;71,1;<7;<10;30;16,9;3,0;278
05.05.2023;18:00;78,7;<7;<10;29;15,8;3,1;16
05.05.2023;19:00;86,2;<7;<10;29;14,1;2,3;356
05.05.2023;20:00;89,9;<7;10;28;13,6;1,5;86
05.05.2023;21:00;90,3;<7;14;27;13,1;1,0;108
05.05.2023;22:00;90,0;<7;27;26;12,7;0,7;161
05.05.2023;23:00;90,9;<7;25;26;12,6;1,1;154
05.05.2023;24:00;91,1;<7;20;26;12,3;1,3;150
06.05.2023;01:00;91,6;<7;17;25;12,1;1,1;130
06.05.2023;02:00;91,1;<7;13;24;11,8;0,5;144
06.05.2023;03:00;92,1;<7;19;24;11,3;1,1;149
06.05.2023;04:00;92,0;<7;27;24;10,6;0,8;154
06.05.2023;05:00;91,4;<7;21;25;10,4;0,3;
06.05.2023;06:00;91,6;12;29;24;10,5;0,6;149
06.05.2023;07:00;87,3;12;24;24;12,9;0,4;
06.05.2023;08:00;81,8;<7;10;22;13,9;0,9;203
06.05.2023;09:00;76,9;<7;<10;19;15,2;1,1;210
06.05.2023;10:00;72,5;<7;<10;19;16,5;1,4;183
06.05.2023;11:00;67,3;<7;<10;19;17,9;1,2;169
06.05.2023;12:00;62,8;<7;<10;19;18,7;1,2;180
06.05.2023;13:00;60,7;<7;<10;19;19,4;1,7;138
06.05.2023;14:00;56,3;<7;<10;18;20,1;1,6;134
06.05.2023;15:00;57,7;<7;<10;17;19,7;2,0;157
06.05.2023;16:00;79,7;<7;<10;18;16,6;2,4;210
06.05.2023;17:00;80,8;<7;<10;18;16,6;2,1;115
06.05.2023;18:00;80,1;<7;<10;18;16,8;2,2;107
06.05.2023;19:00;77,9;<7;20;18;17,0;0,9;175
06.05.2023;20:00;81,1;<7;23;19;16,5;0,7;204
06.05.2023;21:00;82,1;<7;24;19;16,0;0,6;135
06.05.2023;22:00;84,5;<7;30;20;15,7;1,0;135
06.05.2023;23:00;87,5;<7;18;20;15,1;1,4;49
06.05.2023;24:00;90,4;<7;20;20;14,6;1,0;81
07.05.2023;01:00;90,4;<7;25;20;14,8;1,7;92
07.05.2023;02:00;89,7;<7;19;20;14,5;1,0;83
07.05.2023;03:00;88,2;<7;16;19;14,5;0,8;84
07.05.2023;04:00;89,0;<7;20;19;14,2;1,4;103
07.05.2023;05:00;89,5;<7;20;19;13,8;0,9;104
07.05.2023;06:00;89,7;<7;20;18;13,7;0,6;94
07.05.2023;07:00;89,3;<7;18;19;14,1;0,8;94
07.05.2023;08:00;86,2;<7;19;20;15,2;1,8;116
07.05.2023;09:00;79,2;<7;19;20;16,8;1,8;122
07.05.2023;10:00;72,0;<7;15;20;18,7;1,7;108
07.05.2023;11:00;65,8;<7;10;20;20,1;1,3;91
07.05.2023;12:00;60,3;<7;<10;20;20,8;1,6;55
07.05.2023;13:00;59,4;<7;<10;20;21,1;1,8;33
07.05.2023;14:00;61,6;<7;<10;20;21,0;1,8;7
07.05.2023;15:00;63,4;<7;<10;20;20,5;2,5;254
07.05.2023;16:00;79,3;<7;<10;20;17,4;2,3;291
07.05.2023;17:00;85,1;<7;<10;20;17,6;2,0;337
07.05.2023;18:00;80,3;<7;<10;20;18,2;1,2;338
07.05.2023;19:00;79,3;<7;<10;20;18,3;1,4;334
07.05.2023;20:00;80,6;<7;10;19;17,9;1,2;353
07.05.2023;21:00;84,3;<7;12;19;17,2;1,0;10
07.05.2023;22:00;87,5;<7;13;19;16,7;1,0;14
07.05.2023;23:00;89,7;<7;12;18;16,1;1,0;18
07.05.2023;24:00;90,7;<7;13;18;15,7;0,4;59
08.05.2023;01:00;90,8;<7;21;19;15,6;0,6;126
08.05.2023;02:00;91,7;<7;11;19;15,1;0,7;90
08.05.2023;03:00;91,9;<7;10;19;14,8;0,7;147
08.05.2023;04:00;91,8;<7;13;19;14,8;1,8;143
08.05.2023;05:00;91,7;<7;18;19;14,4;1,3;157
08.05.2023;06:00;92,2;<7;24;19;14,0;1,3;137
08.05.2023;07:00;92,4;9;18;18;14,7;2,1;141
08.05.2023;08:00;91,7;<7;15;17;15,0;1,8;159
08.05.2023;09:00;90,8;<7;10;17;15,3;2,2;146
08.05.2023;10:00;84,9;<7;<10;17;16,7;2,0;139
08.05.2023;11:00;76,4;<7;<10;18;18,2;1,7;128
08.05.2023;12:00;72,4;<7;<10;19;19,4;1,9;109
08.05.2023;13:00;70,4;<7;<10;19;20,0;2,3;113
08.05.2023;14:00;69,8;<7;12;20;20,1;3,0;114
08.05.2023;15:00;73,5;<7;14;21;19,4;2,1;156
08.05.2023;16:00;77,6;<7;12;22;19,0;1,1;8
08.05.2023;17:00;73,0;<7;12;23;19,3;2,6;98
08.05.2023;18:00;71,5;<7;12;23;19,5;2,6;112
08.05.2023;19:00;71,4;<7;18;23;19,3;2,1;137
08.05.2023;20:00;74,2;<7;19;23;18,7;1,3;112
08.05.2023;21:00;78,8;<7;22;24;17,9;1,3;109
08.05.2023;22:00;82,1;<7;15;25;17,0;1,6;114
08.05.2023;23:00;84,1;<7;13;25;16,4;1,4;129
08.05.2023;24:00;85,7;<7;14;25;16,2;1,1;163
09.05.2023;01:00;87,7;<7;11;25;16,0;2,3;242
09.05.2023;02:00;89,7;<7;<10;25;15,3;2,3;244
09.05.2023;03:00;90,0;<7;<10;24;15,0;1,9;235
09.05.2023;04:00;88,5;<7;12;25;15,0;1,2;229
09.05.2023;05:00;88,3;<7;16;25;15,2;0,8;171
09.05.2023;06:00;89,3;<7;21;27;15,2;1,2;135
09.05.2023;07:00;89,4;<7;16;30;15,6;1,7;130
09.05.2023;08:00;87,3;<7;13;31;16,2;1,5;170
09.05.2023;09:00;82,5;<7;11;31;17,1;2,8;148
09.05.2023;10:00;74,7;<7;<10;31;18,4;2,5;158
09.05.2023;11:00;68,3;;;31;19,4;2,4;185
09.05.2023;12:00;67,1;;;31;19,5;2,0;180
09.05.2023;13:00;68,4;<7;<10;32;19,5;2,0;216
09.05.2023;14:00;81,6;<7;<10;31;17,6;2,8;266
09.05.2023;15:00;86,2;<7;<10;29;16,8;3,0;248
09.05.2023;16:00;88,5;<7;<10;29;16,3;3,0;238
09.05.2023;17:00;91,2;<7;<10;28;15,2;2,9;274
09.05.2023;18:00;91,8;<7;<10;28;14,4;2,5;259
09.05.2023;19:00;92,0;<7;<10;28;14,0;2,0;239
09.05.2023;20:00;91,4;<7;<10;27;13,5;3,5;237
09.05.2023;21:00;92,4;<7;<10;26;12,7;4,2;232
09.05.2023;22:00;93,4;<7;<10;25;12,6;3,4;232
09.05.2023;23:00;94,0;<7;<10;24;12,7;2,8;236
09.05.2023;24:00;94,2;<7;<10;24;12,9;2,8;236
10.05.2023;01:00;94,4;<7;<10;23;12,9;2,7;238
10.05.2023;02:00;94,2;<7;<10;22;12,7;2,3;276
10.05.2023;03:00;94,1;<7;<10;22;12,6;1,6;266
10.05.2023;04:00;94,2;<7;<10;21;12,7;1,9;241
10.05.2023;05:00;94,3;<7;<10;20;12,8;2,7;235
10.05.2023;06:00;93,6;<7;<10;18;12,7;3,2;232
10.05.2023;07:00;92,9;<7;11;16;12,7;3,2;239
10.05.2023;08:00;93,3;<7;<10;14;12,7;2,9;250
10.05.2023;09:00;92,6;<7;<10;14;13,0;2,9;256
10.05.2023;10:00;88,4;<7;<10;14;13,7;3,3;246
10.05.2023;11:00;84,7;<7;<10;14;14,0;3,9;257
10.05.2023;12:00;82,7;<7;<10;14;14,3;4,1;248
10.05.2023;13:00;85,1;<7;<10;13;14,2;3,9;231
10.05.2023;14:00;82,1;<7;<10;12;14,8;3,7;236
10.05.2023;15:00;76,7;<7;<10;12;15,7;3,3;235
10.05.2023;16:00;73,5;<7;<10;12;16,3;3,8;239
10.05.2023;17:00;75,1;<7;<10;12;15,9;4,2;236
10.05.2023;18:00;75,7;<7;<10;12;15,5;3,6;251
10.05.2023;19:00;81,0;<7;10;12;14,7;2,0;312
10.05.2023;20:00;82,6;<7;11;12;14,1;0,8;334
10.05.2023;21:00;82,5;<7;12;13;14,1;0,2;
10.05.2023;22:00;85,4;<7;11;13;13,3;0,2;
10.05.2023;23:00;87,5;<7;12;13;12,5;0,3;
10.05.2023;24:00;88,1;<7;12;14;12,7;0,9;275
11.05.2023;01:00;90,3;<7;<10;14;12,5;1,9;258
11.05.2023;02:00;91,6;<7;<10;14;12,2;2,4;231
11.05.2023;03:00;92,6;<7;<10;15;11,9;1,6;242
11.05.2023;04:00;93,1;<7;<10;15;11,8;2,2;245
11.05.2023;05:00;93,3;<7;11;15;11,7;1,6;230
11.05.2023;06:00;93,2;<7;16;15;11,9;1,6;232
11.05.2023;07:00;93,2;<7;15;15;12,0;1,7;248
11.05.2023;08:00;91,2;<7;10;16;12,4;1,8;276
11.05.2023;09:00;89,3;<7;11;16;12,7;2,1;274
11.05.2023;10:00;87,2;<7;<10;16;13,1;2,5;274
11.05.2023;11:00;82,9;<7;<10;17;14,0;2,4;265
11.05.2023;12:00;79,7;<7;<10;17;14,5;2,6;254
11.05.2023;13:00;82,3;<7;<10;17;14,4;3,3;246
11.05.2023;14:00;79,5;<7;<10;18;15,1;3,0;253
11.05.2023;15:00;76,2;<7;<10;18;15,6;2,9;257
11.05.2023;16:00;72,0;<7;<10;19;16,1;2,6;267
11.05.2023;17:00;71,2;<7;<10;19;16,2;2,2;312
11.05.2023;18:00;73,7;<7;<10;19;16,0;1,9;346
11.05.2023;19:00;82,1;<7;11;19;14,7;2,0;40
11.05.2023;20:00;89,0;<7;12;19;13,4;1,1;43
11.05.2023;21:00;89,2;<7;14;19;13,6;0,4;
11.05.2023;22:00;89,5;<7;14;19;13,5;0,5;343
11.05.2023;23:00;90,3;<7;14;19;13,3;0,6;286
11.05.2023;24:00;92,1;<7;17;19;13,2;1,6;278
12.05.2023;01:00;93,4;<7;<10;19;13,0;1,5;277
12.05.2023;02:00;94,0;<7;<10;19;13,0;1,8;273
12.05.2023;03:00;94,0;<7;<10;19;12,8;1,1;314
12.05.2023;04:00;93,9;<7;<10;18;12,4;2,0;295
12.05.2023;05:00;93,8;<7;<10;18;12,1;1,4;289
12.05.2023;06:00;93,2;10;12;17;12,2;0,8;63
12.05.2023;07:00;93,3;9;16;17;12,6;1,2;71
12.05.2023;08:00;91,0;9;15;16;13,3;2,4;72
12.05.2023;09:00;86,5;<7;13;16;13,7;3,2;84
12.05.2023;10:00;81,6;7;13;15;14,4;4,0;91
12.05.2023;11:00;76,7;<7;<10;15;15,4;4,1;96
12.05.2023;12:00;72,9;<7;<10;14;16,3;3,5;91
12.05.2023;13:00;65,8;<7;<10;14;17,9;3,1;86
12.05.2023;14:00;61,2;<7;<10;14;18,8;2,6;77
12.05.2023;15:00;69,2;<7;<10;14;18,1;2,3;25
12.05.2023;16:00;70,4;<7;<10;14;18,1;3,1;25
12.05.2023;17:00;70,4;<7;<10;14;18,4;2,4;25
12.05.2023;18:00;66,0;<7;<10;14;18,1;2,8;26
12.05.2023;19:00;65,4;<7;<10;14;17,3;2,0;17
12.05.2023;20:00;70,0;<7;12;14;16,3;1,5;27
12.05.2023;21:00;72,4;<7;17;14;15,6;1,5;10
12.05.2023;22:00;72,4;<7;18;14;15,2;1,4;3
12.05.2023;23:00;75,3;<7;20;15;14,6;1,0;346
12.05.2023;24:00;76,4;<7;30;15;14,6;1,5;345
13.05.2023;01:00;80,3;<7;27;16;13,8;1,5;345
13.05.2023;02:00;81,9;<7;24;17;13,4;1,9;346
13.05.2023;03:00;82,9;<7;21;18;12,8;1,7;348
13.05.2023;04:00;83,5;<7;18;18;12,3;1,5;348
13.05.2023;05:00;83,5;<7;18;19;11,9;1,8;347
13.05.2023;06:00;82,4;<7;18;20;12,0;2,0;348
13.05.2023;07:00;81,5;<7;18;21;12,3;1,5;359
13.05.2023;08:00;79,1;<7;18;22;13,4;1,9;11
13.05.2023;09:00;75,2;<7;19;23;14,7;2,1;20
13.05.2023;10:00;66,4;<7;17;24;16,9;1,8;19
13.05.2023;11:00;62,0;<7;14;24;18,2;1,7;33
13.05.2023;12:00;52,4;<7;13;24;20,3;2,4;24
13.05.2023;13:00;44,7;<7;<10;25;21,5;3,4;23
13.05.2023;14:00;41,6;<7;<10;25;22,0;3,6;46
13.05.2023;15:00;52,8;<7;<10;25;19,9;3,3;142
13.05.2023;16:00;48,9;<7;10;25;20,6;1,8;211
13.05.2023;17:00;48,0;<7;<10;25;20,7;1,7;282
13.05.2023;18:00;70,5;<7;<10;26;16,1;4,1;121
13.05.2023;19:00;86,3;<7;<10;25;13,9;1,9;256
13.05.2023;20:00;88,6;<7;13;25;14,1;0,8;253
13.05.2023;21:00;87,0;<7;17;25;14,2;0,7;338
13.05.2023;22:00;84,4;<7;15;25;13,9;0,7;327
13.05.2023;23:00;82,2;<7;12;25;13,7;1,0;326
13.05.2023;24:00;82,3;<7;15;25;13,7;1,0;309
14.05.2023;01:00;84,9;<7;21;24;12,8;0,3;
14.05.2023;02:00;86,6;<7;25;24;12,4;0,5;
14.05.2023;03:00;89,7;<7;20;24;11,3;0,8;265
14.05.2023;04:00;89,9;<7;15;25;11,3;1,1;298
14.05.2023;05:00;89,7;<7;11;25;10,7;0,5;273
14.05.2023;06:00;89,3;<7;10;24;10,8;0,5;296
14.05.2023;07:00;88,1;<7;13;24;11,9;0,8;219
14.05.2023;08:00;88,8;<7;11;25;12,4;1,5;227
14.05.2023;09:00;84,6;<7;13;25;14,1;1,4;219
14.05.2023;10:00;81,3;<7;13;25;15,8;1,6;214
14.05.2023;11:00;74,8;;;25;17,2;1,9;227
14.05.2023;12:00;63,8;<7;<10;25;18,9;1,6;239
14.05.2023;13:00;54,2;<7;<10;26;20,0;1,9;286
14.05.2023;14:00;48,6;<7;10;26;19,6;1,9;339
14.05.2023;15:00;42,8;<7;<10;26;20,7;1,9;305
14.05.2023;16:00;37,4;<7;<10;26;21,4;2,6;346
14.05.2023;17:00;39,0;<7;<10;26;21,0;2,6;346
14.05.2023;18:00;41,6;<7;<10;26;20,3;2,6;351
14.05.2023;19:00;46,1;<7;<10;26;19,6;2,0;355
14.05.2023;20:00;47,3;<7;<10;27;19,0;1,9;353
14.05.2023;21:00;52,3;<7;<10;27;17,9;1,2;322
14.05.2023;22:00;62,4;<7;<10;27;16,7;1,0;351
14.05.2023;23:00;69,5;<7;<10;27;16,1;1,8;319
14.05.2023;24:00;81,5;<7;<10;27;15,0;2,0;324
15.05.2023;01:00;86,2;<7;<10;27;14,1;1,2;281
15.05.2023;02:00;89,2;<7;<10;27;13,1;1,5;253
15.05.2023;03:00;91,2;<7;<10;26;12,3;2,3;251
15.05.2023;04:00;91,3;<7;<10;26;12,0;2,4;265
15.05.2023;05:00;91,0;<7;<10;26;11,9;2,2;268
15.05.2023;06:00;91,1;<7;16;26;11,4;2,3;257
15.05.2023;07:00;90,6;<7;<10;26;11,1;3,0;271
15.05.2023;08:00;88,1;<7;<10;26;11,1;3,0;268
15.05.2023;09:00;83,1;<7;<10;26;12,3;3,0;272
15.05.2023;10:00;73,7;<7;<10;25;13,8;2,7;274
15.05.2023;11:00;61,7;<7;<10;25;15,5;2,6;290
15.05.2023;12:00;55,9;;;25;16,6;2,6;280
15.05.2023;13:00;49,0;<7;<10;24;17,8;2,8;279
15.05.2023;14:00;49,3;<7;<10;24;18,5;3,6;279